Location: Alpha Ridge Park
(39.3209°N, 76.9128°W)
Time: 10:24:02
(UTC-04:00)

S-56A Canister/Altair - Pass Details

Date: 19 May 2019
Orbit: 633 x 2499 km, 38.9° (Epoch: 25 June)

Event Time Altitude Azimuth Distance (km) Brightness Sun altitude
Rises 08:24:11 0° 284° (WNW) 4,890 11.1 27.6°
Reaches altitude 10° 08:27:03 10° 282° (WNW) 4,120 10.8 28.2°
Maximum altitude 08:38:34 66° 204° (SSW) 2,408 10.4 30.4°
Drops below altitude 10° 08:53:22 10° 127° (SE) 5,157 12.6 33.3°
Sets 08:57:27 0° 124° (SE) 6,151 12.9 34.0°
